Wind_Speed
24 24 27 27 26 24 20 18 19 24 28 30 33 36 37 39 40 41 42 45 49 50 51 53 53 56 60 61 60 60 66 67 59 48 40 38 43 44 44 42 51 60 59 53 54
25 28 28 29 30 30 29 28 27 25 24 29 34 39 42 46 47 48 49 50 51 53 53 55 56 58 60 60 65 67 71 69 54 48 48 45 49 50 48 45 47 60 64 57 57
26 28 29 29 30 30 31 34 36 35 34 33 33 37 41 48 53 54 56 58 57 58 59 59 59 62 61 62 64 65 70 57 53 52 52 49 56 54 53 51 47 57 64 62 58
29 32 33 35 37 38 38 38 39 41 43 44 43 42 42 44 53 61 63 63 64 64 62 63 63 65 63 63 62 63 61 55 51 52 54 53 53 57 57 51 47 51 60 62 59
32 33 35 36 38 40 41 42 43 44 43 45 48 51 52 52 52 57 61 67 73 70 67 66 67 67 67 64 63 65 64 60 56 56 54 49 53 57 56 51 52 52 55 57 58
31 34 35 38 40 42 42 43 43 45 46 50 55 56 57 60 61 64 65 65 69 72 70 67 66 68 71 70 68 68 66 63 62 57 57 57 53 58 53 52 51 53 56 58 62
34 36 37 39 41 42 44 46 49 51 55 59 61 63 65 67 69 66 70 72 70 72 72 71 69 67 70 71 71 72 72 69 64 60 58 57 57 55 48 51 50 52 55 59 60
36 38 41 43 45 48 49 51 55 58 59 60 63 68 70 72 74 71 69 72 75 75 74 76 74 71 70 71 71 72 72 70 62 62 60 61 56 50 50 53 52 53 54 58 60
40 43 44 48 53 55 56 58 62 62 61 58 58 59 63 60 56 48 45 42 44 52 61 72 77 71 70 70 71 71 71 70 65 62 63 63 56 55 53 54 54 52 53 56 56
46 48 50 52 56 59 61 62 61 57 54 51 49 49 44 43 35 28 33 35 28 31 52 62 72 76 71 68 70 68 70 71 70 61 62 63 63 58 54 53 54 56 54 56 52
51 53 54 57 60 63 62 59 50 48 46 46 41 34 34 29 34 31 32 31 23 19 35 52 62 70 71 71 66 70 72 72 69 66 66 65 65 62 59 58 57 56 56 58 52
54 57 60 60 62 65 63 57 48 46 45 39 30 29 30 28 25 24 27 28 26 21 19 29 53 56 62 73 74 72 68 68 68 66 67 69 67 65 62 58 60 57 57 57 55
57 62 65 64 66 65 62 51 44 44 41 36 29 31 30 33 32 26 30 27 28 34 21 17 9 48 56 61 71 74 70 64 66 67 65 71 70 68 65 60 60 62 60 59 55
61 63 68 65 68 63 54 47 46 45 41 37 31 33 33 34 38 35 32 34 29 32 13 8 15 21 42 55 60 69 67 67 69 65 68 72 75 68 67 64 62 61 62 60 56
61 64 70 68 67 59 49 47 46 42 42 40 28 34 35 38 41 41 42 31 27 27 17 11 13 13 17 44 54 60 66 68 69 67 72 70 74 73 71 68 62 60 60 59 59
63 69 71 68 67 58 46 46 43 42 40 33 34 32 33 38 41 43 38 31 23 18 20 11 12 8 10 16 35 51 60 66 68 71 74 70 70 75 75 69 63 59 56 57 56
67 72 71 70 66 56 46 45 44 43 42 34 31 35 38 41 37 29 27 22 23 13 16 13 13 10 6 7 13 39 54 60 64 72 75 71 75 74 68 67 61 59 59 59 59
68 74 73 73 64 53 45 45 46 47 33 27 27 32 35 31 24 20 24 24 23 17 13 13 10 6 8 9 10 16 29 53 59 64 72 73 75 69 63 65 64 62 60 62 60
69 75 74 74 63 51 44 44 46 41 27 27 27 28 27 27 30 24 21 21 19 15 18 10 7 7 9 12 10 12 17 15 37 54 63 74 75 67 67 66 65 62 63 64 64
69 75 75 70 59 50 42 42 45 36 29 29 31 31 25 27 27 23 20 20 19 16 18 16 7 11 12 10 7 12 17 17 21 30 42 59 58 74 71 69 63 62 61 63 65
70 74 74 68 59 47 39 43 44 31 27 30 31 33 30 29 24 20 18 17 15 17 11 17 14 9 14 11 10 10 12 18 20 26 32 45 45 62 71 70 67 65 64 63 61
68 73 72 66 54 43 40 41 42 28 26 27 26 31 30 32 24 22 19 17 13 11 8 11 13 10 14 7 7 9 14 20 26 27 28 32 34 40 63 74 74 70 67 62 59
70 70 69 62 52 38 41 42 41 31 24 22 31 31 28 28 31 23 20 16 10 5 4 8 9 9 11 10 12 12 13 14 20 30 32 30 10 30 43 54 76 76 71 66 60
69 70 66 58 52 40 36 40 41 35 20 20 25 29 31 25 23 23 19 12 8 5 1 2 5 6 7 15 18 16 17 17 21 29 26 30 22 15 26 39 48 74 74 68 61
69 70 62 56 44 40 39 39 41 31 17 14 18 27 31 27 18 17 13 12 12 10 9 7 8 9 13 18 15 14 14 17 20 26 25 22 31 27 23 36 37 57 78 73 66
69 69 56 47 42 42 39 40 42 38 16 14 16 24 26 25 22 16 18 15 14 11 11 12 14 17 16 23 25 18 19 21 20 19 21 18 20 25 24 29 30 45 83 74 68
71 65 56 45 42 42 40 40 42 29 22 16 15 22 24 25 22 18 16 13 13 13 15 17 18 15 10 9 12 4 13 11 9 11 10 7 14 23 24 28 31 39 84 73 69
Wind_Direction
12 4 358 354 347 342 335 325 311 304 295 288 280 275 269 265 261 253 244 244 246 245 244 247 246 244 242 244 246 249 253 252 253 257 258 249 246 242 239 234 229 232 240 246 247
1 3 360 350 343 341 336 329 324 315 298 278 278 274 271 268 265 261 256 253 248 247 242 242 243 242 246 244 244 245 252 258 255 251 248 241 245 241 239 233 232 228 238 243 246
355 356 351 346 341 334 328 321 315 314 309 303 293 281 270 264 260 261 259 256 251 249 249 245 242 242 243 243 246 249 253 251 246 243 241 234 240 240 239 239 229 230 235 238 240
350 350 346 339 336 332 327 322 314 306 300 294 289 286 281 273 268 257 255 255 253 253 251 248 246 246 244 243 243 246 247 244 240 239 239 235 234 239 237 235 228 233 235 240 242
350 346 338 332 333 329 325 320 314 307 301 296 292 289 287 285 275 269 266 258 256 254 252 250 249 247 244 243 243 242 241 240 236 232 233 229 231 237 235 231 233 234 237 237 241
339 340 335 330 326 323 323 318 312 308 306 301 299 294 286 282 279 274 267 260 258 256 258 254 249 246 245 245 243 242 242 239 236 232 231 231 226 231 234 231 228 233 240 238 237
339 341 337 331 329 327 324 323 318 311 311 311 306 300 293 288 282 276 268 265 258 253 254 254 252 247 243 242 241 241 239 239 238 234 231 233 228 236 226 230 226 228 234 238 237
338 338 338 336 332 332 331 327 325 323 316 312 308 304 305 303 300 294 286 274 264 256 248 249 249 247 242 241 238 239 240 238 236 238 235 232 231 229 223 226 225 223 228 238 239
344 345 342 341 341 337 334 331 329 325 319 312 315 315 311 308 310 314 306 294 277 256 246 242 245 244 241 239 238 237 239 239 235 234 236 233 231 222 222 222 224 222 223 230 240
345 345 343 344 341 339 337 334 328 322 318 318 316 314 311 314 309 330 333 333 302 262 237 230 236 237 236 236 238 238 236 236 235 230 231 233 228 224 221 218 223 220 224 228 234
344 344 344 344 343 340 336 331 325 319 318 319 316 316 323 317 317 315 330 333 328 313 255 240 237 235 236 236 234 233 233 233 233 231 231 230 231 225 221 218 218 220 222 228 232
342 345 343 343 342 339 334 329 325 321 321 315 312 316 317 324 326 331 334 331 336 308 306 265 241 230 230 228 228 230 231 231 231 231 229 230 227 226 224 220 217 217 221 224 228
343 342 343 342 341 337 334 329 324 320 320 309 306 310 311 315 324 327 325 331 333 334 294 282 264 243 240 232 228 227 227 228 231 230 229 230 228 224 225 222 220 217 218 221 226
342 342 343 341 340 336 333 329 324 322 319 311 291 297 303 307 313 317 317 324 324 340 301 258 262 272 253 243 231 227 226 223 225 225 226 229 227 220 223 221 219 217 218 221 222
341 342 343 343 339 336 333 329 327 323 309 310 293 305 305 313 310 311 307 305 320 348 297 291 274 291 282 245 238 231 225 222 221 221 222 226 226 215 221 221 218 217 218 222 222
341 342 342 342 339 339 333 332 329 323 307 298 300 303 306 305 301 303 302 297 307 325 339 282 309 305 280 252 237 236 229 223 220 219 223 224 228 221 221 222 220 216 217 220 222
342 343 344 342 340 340 333 335 334 330 324 320 303 300 306 307 307 299 300 288 290 305 329 326 306 284 289 281 252 238 234 229 226 223 222 220 222 227 220 222 221 218 215 217 219
343 345 344 343 341 341 337 338 339 337 335 333 323 312 315 311 310 304 296 296 286 288 289 307 314 290 282 287 262 246 238 239 238 229 221 218 230 223 223 222 220 216 212 215 220
344 344 342 343 341 341 340 341 340 341 346 343 333 327 328 324 323 316 298 289 293 291 282 280 277 304 310 297 289 242 247 246 243 242 237 229 238 222 221 219 220 216 214 214 216
344 343 342 341 342 341 339 342 343 345 351 349 346 342 341 338 335 328 317 299 298 305 282 271 245 303 308 303 269 262 244 244 241 241 238 241 245 229 219 223 217 217 213 213 216
344 342 342 342 343 341 341 346 346 349 351 356 356 353 353 347 353 344 333 321 312 308 290 259 258 287 303 291 269 266 262 253 257 244 233 236 244 235 222 221 217 217 214 212 212
344 341 342 340 343 345 342 345 348 347 354 358 356 356 355 353 4 354 346 334 323 315 279 261 257 282 283 284 247 261 259 253 256 257 252 254 241 230 226 221 214 211 212 210 210
346 341 340 339 343 344 339 342 348 348 352 355 355 356 354 354 4 359 349 339 354 342 255 248 268 260 264 275 281 290 287 275 259 262 259 253 208 216 226 220 218 213 208 208 207
345 341 339 338 342 343 341 341 345 347 341 356 358 352 7 358 346 358 352 348 4 14 65 157 213 215 245 273 286 293 289 278 245 247 250 243 251 211 222 219 216 209 203 203 200
342 340 339 337 341 341 339 339 342 345 331 354 350 351 357 356 349 347 1 10 13 12 3 345 316 305 288 277 278 285 273 265 253 258 264 240 254 219 222 220 222 208 193 196 196
341 338 338 333 340 336 336 336 338 338 337 336 356 354 356 351 345 332 336 343 343 343 341 329 317 305 290 289 284 276 253 262 268 271 256 260 232 210 210 216 218 207 188 190 192
340 335 337 332 337 334 334 332 334 340 322 329 354 357 351 343 350 339 335 321 328 307 308 307 320 325 319 332 344 28 223 253 277 241 236 231 201 199 192 216 225 207 192 184 189
Height
5836 5833 5830 5827 5824 5821 5819 5817 5815 5813 5810 5808 5806 5803 5801 5799 5798 5797 5796 5795 5792 5795 5797 5796 5797 5797 5797 5800 5803 5805 5803 5810 5822 5834 5842 5843 5842 5845 5849 5854 5853 5847 5850 5858 5859
5835 5831 5827 5823 5819 5816 5812 5809 5805 5803 5801 5800 5797 5795 5793 5790 5789 5785 5785 5783 5782 5781 5784 5785 5784 5784 5784 5787 5785 5788 5791 5803 5817 5823 5826 5830 5828 5832 5838 5843 5846 5841 5839 5848 5850
5833 5829 5824 5820 5815 5811 5807 5803 5799 5796 5792 5789 5787 5784 5781 5778 5775 5773 5770 5768 5768 5768 5769 5770 5770 5770 5772 5773 5774 5777 5781 5796 5803 5806 5810 5816 5814 5819 5827 5834 5837 5835 5832 5838 5844
5829 5824 5819 5813 5808 5804 5800 5796 5792 5788 5784 5779 5774 5770 5768 5765 5759 5755 5753 5752 5751 5751 5752 5752 5754 5757 5758 5759 5761 5763 5771 5780 5789 5791 5795 5801 5802 5805 5813 5828 5827 5827 5825 5829 5834
5826 5821 5815 5810 5805 5798 5794 5789 5783 5777 5773 5767 5762 5757 5752 5749 5745 5739 5735 5734 5732 5734 5734 5734 5737 5739 5741 5746 5746 5747 5756 5765 5770 5775 5780 5784 5792 5792 5803 5815 5816 5817 5815 5821 5825
5821 5816 5810 5804 5798 5793 5787 5780 5772 5765 5759 5753 5746 5741 5737 5731 5726 5720 5716 5714 5712 5712 5712 5714 5719 5720 5724 5728 5731 5737 5740 5748 5754 5763 5767 5771 5777 5779 5800 5799 5804 5807 5807 5811 5817
5816 5810 5804 5798 5791 5785 5778 5770 5762 5752 5742 5735 5725 5717 5709 5704 5697 5695 5690 5685 5689 5689 5690 5693 5693 5696 5703 5710 5714 5718 5722 5731 5743 5751 5756 5759 5766 5776 5789 5790 5794 5798 5800 5800 5806
5810 5803 5797 5790 5782 5774 5766 5757 5748 5738 5729 5720 5709 5696 5684 5673 5665 5658 5655 5653 5654 5659 5668 5666 5667 5675 5681 5687 5694 5701 5708 5719 5736 5739 5743 5745 5759 5773 5774 5777 5783 5787 5793 5791 5796
5805 5798 5790 5782 5773 5764 5755 5746 5735 5725 5716 5705 5695 5685 5673 5659 5648 5641 5634 5629 5625 5630 5635 5642 5642 5653 5660 5668 5676 5686 5698 5705 5716 5723 5728 5731 5749 5756 5759 5764 5772 5779 5783 5785 5787
5799 5791 5782 5773 5763 5753 5743 5733 5721 5711 5701 5693 5685 5678 5664 5652 5645 5638 5630 5623 5613 5611 5611 5617 5619 5627 5640 5651 5661 5676 5679 5685 5696 5708 5709 5719 5730 5741 5750 5757 5763 5769 5775 5779 5784
5793 5782 5773 5763 5753 5742 5731 5719 5708 5698 5690 5682 5672 5664 5656 5648 5639 5634 5626 5618 5611 5604 5599 5598 5600 5608 5634 5633 5643 5648 5656 5666 5678 5688 5695 5704 5713 5724 5733 5741 5748 5759 5766 5770 5777
5784 5777 5764 5754 5742 5730 5720 5708 5698 5688 5677 5670 5663 5655 5648 5641 5638 5628 5623 5617 5608 5601 5595 5594 5592 5607 5611 5606 5615 5625 5639 5652 5663 5671 5682 5686 5696 5710 5718 5728 5739 5749 5755 5761 5767
5778 5767 5759 5744 5732 5720 5707 5697 5687 5678 5668 5659 5653 5648 5641 5633 5629 5625 5618 5612 5604 5597 5591 5589 5589 5587 5586 5591 5603 5608 5622 5641 5645 5653 5668 5670 5679 5695 5706 5717 5727 5737 5743 5749 5759
5769 5760 5749 5737 5723 5708 5696 5686 5677 5666 5659 5653 5645 5640 5635 5627 5619 5616 5611 5605 5599 5595 5587 5585 5583 5582 5577 5579 5590 5596 5611 5621 5626 5641 5651 5648 5658 5678 5686 5700 5713 5727 5736 5744 5752
5762 5752 5740 5727 5714 5700 5688 5676 5666 5657 5647 5644 5638 5633 5626 5620 5613 5608 5604 5602 5596 5590 5586 5582 5578 5575 5570 5575 5580 5585 5596 5603 5612 5624 5625 5633 5642 5667 5672 5685 5703 5721 5731 5737 5744
5755 5744 5732 5719 5704 5693 5681 5669 5660 5652 5642 5637 5633 5626 5622 5614 5607 5599 5593 5592 5591 5588 5582 5579 5576 5572 5569 5567 5569 5580 5582 5589 5598 5605 5607 5626 5627 5654 5661 5683 5696 5711 5725 5730 5733
5749 5736 5723 5711 5697 5684 5672 5663 5654 5644 5635 5630 5625 5620 5613 5606 5597 5589 5585 5585 5584 5586 5582 5579 5574 5572 5569 5567 5566 5571 5575 5580 5584 5587 5594 5613 5608 5636 5658 5671 5688 5700 5709 5713 5718
5741 5728 5715 5703 5688 5678 5666 5657 5647 5637 5630 5624 5617 5612 5605 5596 5591 5584 5579 5576 5576 5579 5579 5577 5573 5570 5568 5567 5566 5566 5568 5573 5576 5580 5593 5599 5582 5622 5654 5657 5670 5683 5695 5700 5707
5733 5720 5707 5694 5681 5670 5661 5653 5643 5633 5627 5621 5615 5606 5599 5591 5583 5579 5574 5571 5570 5572 5573 5572 5571 5569 5569 5565 5565 5566 5565 5571 5569 5575 5578 5581 5580 5619 5628 5641 5653 5667 5679 5686 5692
5728 5713 5700 5687 5674 5664 5656 5647 5637 5628 5622 5616 5608 5602 5595 5587 5580 5574 5570 5566 5567 5567 5566 5568 5569 5566 5565 5564 5563 5563 5564 5565 5564 5566 5565 5571 5574 5595 5616 5627 5643 5650 5664 5672 5681
5722 5708 5694 5681 5669 5659 5650 5642 5632 5624 5619 5612 5605 5599 5591 5583 5578 5572 5569 5565 5563 5562 5561 5561 5564 5565 5562 5561 5560 5560 5560 5561 5561 5560 5562 5567 5567 5589 5606 5612 5624 5636 5645 5657 5672
5717 5704 5689 5676 5667 5655 5646 5639 5631 5623 5616 5609 5605 5597 5589 5583 5578 5572 5567 5562 5560 5559 5557 5556 5559 5560 5559 5559 5559 5558 5557 5556 5556 5558 5558 5559 5562 5576 5580 5587 5602 5617 5630 5644 5661
5712 5697 5684 5672 5664 5655 5643 5635 5628 5620 5614 5610 5602 5596 5589 5583 5578 5572 5568 5563 5560 5557 5556 5556 5557 5557 5557 5557 5555 5554 5553 5551 5552 5550 5549 5551 5554 5563 5563 5574 5585 5600 5615 5631 5647
5704 5692 5678 5665 5657 5649 5641 5633 5625 5618 5613 5607 5602 5597 5590 5585 5580 5574 5569 5565 5561 5559 5557 5555 5555 5555 5555 5552 5550 5549 5547 5546 5544 5542 5543 5544 5550 5555 5557 5562 5567 5581 5603 5621 5637
5698 5686 5671 5660 5652 5643 5637 5630 5622 5616 5611 5608 5603 5596 5588 5584 5581 5575 5571 5567 5564 5561 5559 5557 5555 5553 5550 5547 5546 5545 5544 5541 5539 5539 5537 5542 5540 5547 5550 5555 5562 5569 5591 5610 5627
5692 5681 5668 5655 5648 5641 5634 5625 5619 5610 5609 5606 5601 5594 5588 5583 5578 5575 5570 5567 5564 5561 5558 5556 5554 5550 5546 5541 5538 5536 5536 5535 5534 5534 5533 5534 5535 5539 5543 5550 5556 5565 5582 5600 5617
5687 5673 5663 5651 5645 5637 5630 5622 5615 5610 5604 5602 5597 5593 5588 5583 5576 5572 5569 5565 5562 5560 5557 5553 5550 5545 5541 5536 5529 5531 5531 5530 5530 5530 5530 5531 5531 5533 5538 5543 5551 5561 5574 5594 5611